Pagina principale
METAR-TAF:

METAR-TAF

Aeroporti :

Capri, Italia

latitudine: 40-33N, longitudine: 014-12E, altezza: 160 m

Osservazione

Il bollettino è stato emesso 2 ore e 18 minuti fa, alle 08:55 UTC
Vento 8 kt da nord-est
Temperature 21°C
Umidità 43%
Pressione 1024 hPa
Visibilità 10 km o più
nessuna nube inferiore a 1500 m e nessun cumulonembo

METAR: LIQC 190855Z 05008KT CAVOK 21/08 Q1024 RMK SKC QUK 3 QUL 1 NE VIS MAR 35 KM VIS MIN 9999

Ora: 13:13 (11:13 UTC)


TAF: mancante

Osservazioni e previsioni meteorologiche di più di 4000 aeroporti (messaggi METAR e TAF).

Le stazioni disponibili sono rappresentate dai dischi gialli e rossi sulla carta.

Puntare il mouse per vedere il nome della stazione.

Clicca sopra per visualizzare le osservazioni e previsioni meteorologiche.

Per cambiare la mappa : fare clic sui pulsanti verdi con una croce nera per ingrandire, il pulsante verde con un trattino per diminuire, o sulla freccia verde per le mappe adiacenti.


METAR-TAF: